timestamp,surface_pressure_avg,surface_temp_avg,battery_voltage,lat,long
2019-12-27 00:09:01+00:00,347.51300000000015,2.7,12.49,47.84626,-54.09684
2019-12-27 00:19:01+00:00,346.5396,2.7,12.49,47.84626,-54.09684
2019-12-27 00:29:01+00:00,343.88300000000015,2.7,12.49,47.84626,-54.09684
2019-12-27 00:39:01+00:00,342.5463,2.7,12.49,47.84626,-54.09684
2019-12-27 00:49:01+00:00,344.598,2.7,12.49,47.84626,-54.09684
2019-12-27 00:59:01+00:00,343.3812,2.7,12.49,47.84626,-54.09684
2019-12-27 01:09:01+00:00,339.3913,2.69,12.49,47.84626,-54.09684
2019-12-27 01:19:01+00:00,335.8013,2.7,12.49,47.84626,-54.09684
2019-12-27 01:29:01+00:00,332.9046,2.7,12.49,47.84626,-54.09684
2019-12-27 01:39:01+00:00,331.1063,2.7,12.49,47.84626,-54.09684
2019-12-27 01:49:01+00:00,327.3446,2.7,12.49,47.84626,-54.09684
2019-12-27 01:59:01+00:00,322.6047,2.7,12.49,47.84626,-54.09684
2019-12-27 02:09:01+00:00,318.3696,2.7,12.49,47.84626,-54.09684
2019-12-27 02:19:01+00:00,312.9564,2.67,12.49,47.84626,-54.09684
2019-12-27 02:29:01+00:00,309.3747,2.67,12.49,47.84626,-54.09684
2019-12-27 02:39:01+00:00,303.658,2.66,12.49,47.84626,-54.09684
2019-12-27 02:49:01+00:00,299.2596,2.67,12.49,47.84626,-54.09684
2019-12-27 02:59:01+00:00,290.5598,2.67,12.49,47.84626,-54.09684
2019-12-27 03:09:01+00:00,283.9431,2.67,12.49,47.84626,-54.09684
2019-12-27 03:19:01+00:00,276.8714,2.6,12.49,47.84626,-54.09684
2019-12-27 03:29:01+00:00,268.0147,2.55,12.49,47.84626,-54.09684
2019-12-27 03:39:01+00:00,258.0197,2.58,12.49,47.84626,-54.09684
2019-12-27 03:49:01+00:00,251.8114,2.6,12.49,47.84626,-54.09684
2019-12-27 03:59:01+00:00,245.5948,2.52,12.49,47.84626,-54.09684
2019-12-27 04:09:01+00:00,240.2664,2.5,12.49,47.84626,-54.09684
2019-12-27 04:19:01+00:00,233.7547,2.5,12.49,47.84626,-54.09684
2019-12-27 04:29:01+00:00,228.7514,2.5,12.49,47.84626,-54.09684
2019-12-27 04:39:01+00:00,221.2998,2.5,12.49,47.84626,-54.09684
2019-12-27 04:49:01+00:00,214.6447,2.5,12.49,47.84626,-54.09684
2019-12-27 04:59:01+00:00,211.0131,2.5,12.49,47.84626,-54.09684
2019-12-27 05:09:01+00:00,209.4314,2.5,12.49,47.84626,-54.09684
2019-12-27 05:19:01+00:00,206.9231,2.5,12.49,47.84626,-54.09684
2019-12-27 05:29:01+00:00,205.0781,2.5,12.49,47.84626,-54.09684
2019-12-27 05:39:01+00:00,204.8681,2.48,12.49,47.84626,-54.09684
2019-12-27 05:49:01+00:00,206.4114,2.4,12.49,47.84626,-54.09684
2019-12-27 05:59:01+00:00,207.2148,2.4,12.49,47.84626,-54.09684
2019-12-27 06:09:01+00:00,206.8681,2.4,12.49,47.84626,-54.09684
2019-12-27 06:19:01+00:00,210.3264,2.4,12.49,47.84626,-54.09684
2019-12-27 06:29:01+00:00,213.4481,2.4,12.49,47.84626,-54.09684
2019-12-27 06:39:01+00:00,216.8781,2.4,12.49,47.84626,-54.09684
2019-12-27 06:49:01+00:00,220.1998,2.39,12.49,47.84626,-54.09684
2019-12-27 06:59:01+00:00,223.8981,2.39,12.49,47.84626,-54.09684
2019-12-27 07:09:01+00:00,227.7281,2.39,12.49,47.84626,-54.09684
2019-12-27 07:19:01+00:00,232.9247,2.4,12.49,47.84626,-54.09684
2019-12-27 07:29:01+00:00,239.0881,2.43,12.49,47.84626,-54.09684
2019-12-27 07:39:01+00:00,243.8197,2.4,12.49,47.84626,-54.09684
2019-12-27 07:49:01+00:00,246.3581,2.35,12.49,47.84626,-54.09684
2019-12-27 07:59:01+00:00,249.8381,2.35,12.49,47.84626,-54.09684
2019-12-27 08:09:01+00:00,255.0481,2.38,12.49,47.84626,-54.09684
2019-12-27 08:19:01+00:00,258.8664,2.4,12.49,47.84626,-54.09684
2019-12-27 08:29:01+00:00,262.6448,2.4,12.49,47.84626,-54.09684
2019-12-27 08:39:01+00:00,269.0714,2.39,12.49,47.84626,-54.09684
2019-12-27 08:49:01+00:00,275.7347,2.37,12.49,47.84626,-54.09684
2019-12-27 08:59:01+00:00,282.1298,2.39,12.49,47.84626,-54.09684
2019-12-27 09:09:01+00:00,288.2648,2.4,12.49,47.84626,-54.09684
2019-12-27 09:19:01+00:00,296.923,2.35,12.49,47.84626,-54.09684
2019-12-27 09:29:01+00:00,303.0231,2.31,12.49,47.84626,-54.09684
2019-12-27 09:39:01+00:00,310.043,2.3,12.49,47.84626,-54.09684
2019-12-27 09:49:01+00:00,319.1929,2.3,12.49,47.84626,-54.09684
2019-12-27 09:59:01+00:00,328.658,2.32,12.49,47.84626,-54.09684
2019-12-27 10:09:01+00:00,338.2546,2.34,12.49,47.84626,-54.09684
2019-12-27 10:19:01+00:00,347.9613,2.33,12.41,47.84626,-54.09684
2019-12-27 10:29:01+00:00,356.4729,2.32,12.41,47.84626,-54.09684
2019-12-27 10:39:01+00:00,364.3529,2.3,12.41,47.84626,-54.09684
2019-12-27 10:49:01+00:00,372.1612,2.32,12.41,47.84626,-54.09684
2019-12-27 10:59:01+00:00,378.858,2.36,12.41,47.84626,-54.09684
2019-12-27 11:09:01+00:00,385.8296,2.39,12.41,47.84626,-54.09684
2019-12-27 11:19:01+00:00,392.5813,2.4,12.41,47.84626,-54.09684
2019-12-27 11:29:01+00:00,394.8263,2.4,12.41,47.84626,-54.09684
2019-12-27 11:39:01+00:00,397.7878,2.4,12.41,47.84626,-54.09684
2019-12-27 11:49:01+00:00,402.0696,2.4,12.41,47.84626,-54.09684
2019-12-27 11:59:01+00:00,402.5196,2.4,12.41,47.84626,-54.09684
2019-12-27 12:09:01+00:00,401.6664,2.4,12.41,47.84626,-54.09684
2019-12-27 12:19:01+00:00,403.9861,2.4,12.73,47.84626,-54.09684
2019-12-27 12:29:01+00:00,404.8496,2.4,12.73,47.84626,-54.09684
2019-12-27 12:39:01+00:00,400.923,2.4,12.73,47.84626,-54.09684
2019-12-27 12:49:01+00:00,399.1962,2.4,12.73,47.84626,-54.09684
2019-12-27 12:59:01+00:00,401.2512,2.44,12.73,47.84626,-54.09684
2019-12-27 13:09:01+00:00,400.8763,2.49,12.73,47.84626,-54.09684
2019-12-27 13:19:01+00:00,396.3879,2.4,13.84,47.84626,-54.09684
2019-12-27 13:29:01+00:00,395.0312,2.4,13.84,47.84626,-54.09684
2019-12-27 13:39:01+00:00,392.5563,2.4,13.84,47.84626,-54.09684
2019-12-27 13:49:01+00:00,388.3712,2.37,13.84,47.84626,-54.09684
2019-12-27 13:59:01+00:00,386.5198,2.34,13.84,47.84626,-54.09684
2019-12-27 14:09:01+00:00,384.7429,2.34,13.84,47.84626,-54.09684
2019-12-27 14:19:01+00:00,379.0963,2.36,14.16,47.84626,-54.09684
2019-12-27 14:29:01+00:00,371.2812,2.38,14.16,47.84626,-54.09684
2019-12-27 14:39:01+00:00,367.2928,2.38,14.16,47.84626,-54.09684
2019-12-27 14:49:01+00:00,360.9296,2.34,14.16,47.84626,-54.09684
2019-12-27 14:59:01+00:00,350.8947,2.33,14.16,47.84626,-54.09684
2019-12-27 15:09:01+00:00,340.2696,2.3,14.16,47.84626,-54.09684
2019-12-27 15:19:01+00:00,333.4579,2.31,14.72,47.84626,-54.09684
2019-12-27 15:29:01+00:00,324.1963,2.31,14.72,47.84626,-54.09684
2019-12-27 15:39:01+00:00,311.9013,2.3,14.72,47.84626,-54.09684
2019-12-27 15:49:01+00:00,302.328,2.3,14.72,47.84626,-54.09684
2019-12-27 15:59:01+00:00,293.1047,2.27,14.72,47.84626,-54.09684
2019-12-27 16:09:01+00:00,281.2614,2.2,14.72,47.84626,-54.09684
2019-12-27 16:19:01+00:00,271.7313,2.21,14.64,47.84626,-54.09684
2019-12-27 16:29:01+00:00,263.3847,2.29,14.64,47.84626,-54.09684
2019-12-27 16:39:01+00:00,253.9314,2.3,14.64,47.84626,-54.09684
2019-12-27 16:49:01+00:00,246.5681,2.3,14.64,47.84626,-54.09684
2019-12-27 16:59:01+00:00,239.9848,2.3,14.64,47.84626,-54.09684
2019-12-27 17:09:01+00:00,231.7332,2.3,14.64,47.84626,-54.09684
2019-12-27 17:19:01+00:00,223.0431,2.3,14.56,47.84626,-54.09684
2019-12-27 17:29:01+00:00,218.3481,2.3,14.56,47.84626,-54.09684
2019-12-27 17:39:01+00:00,213.8581,2.31,14.56,47.84626,-54.09684
2019-12-27 17:49:01+00:00,209.9981,2.33,14.56,47.84626,-54.09684
2019-12-27 17:59:01+00:00,208.6614,2.38,14.56,47.84626,-54.09684
2019-12-27 18:09:01+00:00,206.1898,2.4,14.56,47.84626,-54.09684
2019-12-27 18:19:01+00:00,202.8365,2.4,14.48,47.84626,-54.09684
2019-12-27 18:29:01+00:00,200.7014,2.4,14.48,47.84626,-54.09684
2019-12-27 18:39:01+00:00,200.2414,2.4,14.48,47.84626,-54.09684
2019-12-27 18:49:01+00:00,198.7664,2.4,14.48,47.84626,-54.09684
2019-12-27 18:59:01+00:00,198.5015,2.4,14.48,47.84626,-54.09684
2019-12-27 19:09:01+00:00,199.9031,2.45,14.48,47.84626,-54.09684
2019-12-27 19:19:01+00:00,200.5664,2.5,14.0,47.84626,-54.09684
2019-12-27 19:29:01+00:00,203.4414,2.5,14.0,47.84626,-54.09684
2019-12-27 19:39:01+00:00,208.5015,2.57,14.0,47.84626,-54.09684
2019-12-27 19:49:01+00:00,211.3298,2.6,14.0,47.84626,-54.09684
2019-12-27 19:59:01+00:00,213.6931,2.6,14.0,47.84626,-54.09684
2019-12-27 20:09:01+00:00,218.3848,2.6,14.0,47.84626,-54.09684
2019-12-27 20:19:01+00:00,220.9048,2.6,13.37,47.84626,-54.09684
2019-12-27 20:29:01+00:00,224.1165,2.6,13.37,47.84626,-54.09684
2019-12-27 20:39:01+00:00,229.3647,2.6,13.37,47.84626,-54.09684
2019-12-27 20:49:01+00:00,232.4781,2.6,13.37,47.84626,-54.09684
2019-12-27 20:59:01+00:00,234.2081,2.6,13.37,47.84626,-54.09684
2019-12-27 21:09:01+00:00,239.5265,2.59,13.37,47.84626,-54.09684
2019-12-27 21:19:01+00:00,245.4565,2.53,13.05,47.84626,-54.09684
2019-12-27 21:29:01+00:00,249.5447,2.5,13.05,47.84626,-54.09684
2019-12-27 21:39:01+00:00,257.5164,2.5,13.05,47.84626,-54.09684
2019-12-27 21:49:01+00:00,267.8831,2.5,13.05,47.84626,-54.09684
2019-12-27 21:59:01+00:00,278.1948,2.48,13.05,47.84626,-54.09684
2019-12-27 22:09:01+00:00,285.2164,2.4,13.05,47.84626,-54.09684
2019-12-27 22:19:01+00:00,291.9064,2.3,12.81,47.84626,-54.09684
2019-12-27 22:29:01+00:00,298.688,2.3,12.81,47.84626,-54.09684
2019-12-27 22:39:01+00:00,306.1797,2.25,12.81,47.84626,-54.09684
2019-12-27 22:49:01+00:00,314.2747,2.2,12.81,47.84626,-54.09684
2019-12-27 22:59:01+00:00,318.7064,2.16,12.81,47.84626,-54.09684
2019-12-27 23:09:01+00:00,325.3196,2.1,12.81,47.84626,-54.09684
2019-12-27 23:19:01+00:00,331.7614,2.1,12.73,47.84626,-54.09684
2019-12-27 23:29:01+00:00,338.1563,2.1,12.73,47.84626,-54.09684
2019-12-27 23:39:01+00:00,338.8514,2.1,12.73,47.84626,-54.09684
2019-12-27 23:49:01+00:00,341.1179,2.1,12.73,47.84626,-54.09684
2019-12-27 23:59:01+00:00,344.6063,2.15,12.73,47.84626,-54.09684
